Flag for Germany Weather past 2 weeks in Aachen, North Rhine-Westphalia, Germany

Now
52 °F

Passing clouds.


Feels Like: 49 °F
Forecast: 50 / 60 °F
Wind: 7 mph from Southwest

Location: Geilenkirchen Airport

Current Time: Sep 4, 2015 at 7:55:32 AM

Latest Report: Sep 4, 2015 at 6:50 AM


Visibility: N/A

Pressure: 29.98 "Hg

Humidity: 88%

Dew point: 48 °F

Location of AachenLocation

Historic Weather in Aachen — Graph

°F

Aachen temperature yesterday

Maximum temperature yesterday: 64 °F (at 3:50 PM)
Minimum temperature yesterday: 52 °F (at 5:50 AM)
Average temperature yesterday: 57 °F

Past Weeks' High & Low Weather Summary

 TemperatureHumidityPressure
High90 °F (Aug 31, 3:50 PM)100% (Aug 24, 4:50 AM)30.24 "Hg (Aug 24, 4:50 AM)
Low50 °F (Aug 20, 6:50 AM)33% (Aug 31, 3:50 PM)29.53 "Hg (Aug 24, 2:50 PM)
Average64 °F75%29.93 "Hg
* Reported Aug 20 6:50 AM — Sep 4 6:50 AM, Aachen, Weather by CustomWeather, © 2015

Note: Actual official high and low records may vary slightly from our data, if they occured in-between our weather recording intervals... More about our weather records

Advertising

Aachen weather history for previous 24 hours

 ConditionsComfort  
Time TempWeatherWind HumidityBarometerVisibility
6:50 AM
Fri, Sep 4
52 °FPassing clouds.7 mph88%29.98 "HgN/A
5:50 AM52 °FClear.8 mph88%29.95 "Hg10 mi
4:50 AM52 °FPassing clouds.6 mph88%29.98 "HgN/A
3:50 AM54 °FPartly cloudy.6 mph88%29.98 "HgN/A
2:50 AM54 °FPartly cloudy.6 mph88%29.98 "HgN/A
1:50 AM54 °FLight rain. Partly cloudy.6 mph88%29.98 "HgN/A
12:50 AM54 °FClear.7 mph88%29.98 "Hg10 mi
11:50 PM
Thu, Sep 3
55 °FClear.6 mph82%29.98 "Hg10 mi
10:50 PM55 °FLight rain. Passing clouds.5 mph82%29.98 "HgN/A
9:50 PM54 °FClear.6 mph88%29.98 "Hg10 mi
8:50 PM55 °FSunny.3 mph82%29.98 "Hg10 mi
7:50 PM57 °FSunny.3 mph82%29.95 "Hg10 mi
6:50 PM57 °FBroken clouds.6 mph82%29.98 "HgN/A
5:50 PM55 °FBroken clouds.2 mph82%29.98 "HgN/A
4:50 PM63 °FScattered showers. Partly sunny.10 mph59%29.95 "HgN/A
3:50 PM64 °FPassing clouds.15 mph56%29.95 "HgN/A
2:50 PM61 °FPassing clouds.15 mph59%29.95 "HgN/A
1:50 PM61 °FScattered clouds.13 mph68%29.95 "HgN/A
12:50 PM61 °FScattered clouds.9 mph68%29.95 "HgN/A
11:50 AM61 °FScattered clouds.8 mph72%29.98 "HgN/A
10:50 AM59 °FPassing clouds.9 mph77%29.98 "Hg5 mi
9:50 AM57 °FFog.7 mph82%29.98 "Hg3 mi
8:50 AM55 °FFog.8 mph88%29.98 "Hg2 mi
7:50 AM54 °FFog.5 mph94%29.98 "Hg2 mi
Weather by CustomWeather, © 2015

See weather overviewHow to use our weather pages